User: anonymous
Location: Pine Mountain Observatory
(43.7910°N, 120.9377°W)
Time: 02:52:29
(UTC-07:00)
Language:

Meteor 2-19 Rocket - Orbit

View from above orbital plane
View from above orbital plane
View from above satellite
View from above satellite

Ground track
Ground track

The orbit data is extracted from the following two-line orbital elements,

1 20671U 90057B   14203.82871743  .00000013  00000-0 -13641-5 0   274
2 20671 082.5492 134.9629 0016264 059.1614 353.2233 13.84574360216334
Epoch (UTC): 22 July 2014 19:53:21
Eccentricity: 0.0016264
inclination: 82.5492°
perigee height: 936 km
apogee height: 959 km
right ascension of ascending node: 134.9629°
argument of perigee: 59.1614°
revolutions per day: 13.84574360
mean anomaly at epoch: 353.2233°
orbit number at epoch: 21633

The dashed part of the orbit path shows where the satellite is in the earth's shadow,  

DLR